Location: Andershausen
(51.8462°N, 9.8595°E)
Time: 02:04:44
(UTC+00:00)

Landsat 7 - Pass Details

Date: 18 November 2025
Orbit: 680 x 682 km, 97.9° (Epoch: 13 December)

Event Time Altitude Azimuth Distance (km) Brightness Sun altitude
Rises 16:47:46 0° 165° (SSE) 3,033 7.1 -12.4°
Reaches altitude 10° 16:50:00 10° 166° (SSE) 2,122 6.3 -12.8°
Maximum altitude 16:54:39 87° 254° (WSW) 691 3.8 -13.5°
Drops below altitude 10° 16:59:20 10° 345° (NNW) 2,137 6.3 -14.2°
Sets 17:01:35 0° 346° (NNW) 3,057 7.1 -14.5°
